Goleta, CA

1:22 AM PDT on August 29, 2016 (GMT -0700)
Santa Barbara Municipal

Weather History for KSBA - February, 2013

Change the Weather History Date:

Sunday, February 3, 2013

  Actual Average Record
Temperature  
Mean Temperature 57 °F 53 °F  
Max Temperature 71 °F 64 °F 84 °F (1963)
Min Temperature 43 °F 42 °F 30 °F (1972)
Degree Days  
Heating Degree Days 8 12  
Month to date heating degree days 25 36  
Since 1 July heating degree days 1165 1320  
Cooling Degree Days 0 0  
Month to date cooling degree days 0 0  
Year to date cooling degree days 0 0  
Growing Degree Days 5 (Base 50)    
Moisture  
Dew Point 49 °F    
Average Humidity 75    
Maximum Humidity 93    
Minimum Humidity 56    
Precipitation  
Precipitation 0.00 in 0.14 in 2.06 in (1998)
Month to date precipitation 0.00 0.41  
Year to date precipitation 2.04 3.91  
Since 1 July precipitation 8.11  
Sea Level Pressure  
Sea Level Pressure 30.07 in    
Wind  
Wind Speed 3 mph (SE)    
Max Wind Speed 17 mph    
Max Gust Speed 20 mph    
Visibility 7 miles    
Events      
T = Trace of Precipitation, MM = Missing Value Source: NWS Daily Summary

Daily Weather History Graph

Daily Weather History Graph

Search for Another Location

Airport or City:

Trip Planner

Search our weather history database for the weather conditions in past years. The results will help you decide how hot, cold, wet, or windy it might be!

Date:

Astronomy

Feb. 03, 2013 Rise Set
Actual Time 6:55 AM PST 5:31 PM PST
Civil Twilight 6:29 AM PST 5:57 PM PST
Nautical Twilight 5:59 AM PST 6:27 PM PST
Astronomical Twilight 5:29 AM PST 6:57 PM PST
Moon 12:27 AM PST (2/3) 11:14 AM PST (2/3)
Length of Visible Light 11h 28m
Length of Day
10h 36m
Waning Gibbous, 47% of the Moon is Illuminated
Feb 3
Waning Gibbous
Feb 9
New
Feb 17
First Quarter
Feb 25
Full
Mar 4
Last Quarter

Hourly Weather History & Observations

Time (PST) Temp. Windchill Dew Point Humidity Pressure Visibility Wind Dir Wind Speed Gust Speed Precip Events Conditions
1:53 AM 52.0 °F - 48.0 °F 86% 30.13 in 8.0 mi NNE 3.5 mph - N/A   Clear
2:53 AM 50.0 °F - 46.0 °F 86% 30.13 in 9.0 mi Calm Calm - N/A   Partly Cloudy
3:53 AM 48.0 °F - 45.0 °F 89% 30.12 in 7.0 mi Calm Calm - N/A   Clear
4:53 AM 48.0 °F - 45.0 °F 89% 30.10 in 8.0 mi East 3.5 mph - N/A   Clear
5:53 AM 45.0 °F 43.5 °F 42.1 °F 90% 30.11 in 8.0 mi West 3.5 mph - N/A   Clear
6:35 AM 44.6 °F - 42.8 °F 93% 30.11 in 8.0 mi Calm Calm - N/A   Scattered Clouds
6:53 AM 45.0 °F - 42.1 °F 90% 30.12 in 9.0 mi Calm Calm - N/A   Partly Cloudy
7:53 AM 48.9 °F - 46.0 °F 90% 30.12 in 7.0 mi Calm Calm - N/A   Clear
8:53 AM 59.0 °F - 52.0 °F 78% 30.13 in 7.0 mi Calm Calm - N/A   Clear
9:53 AM 63.0 °F - 51.1 °F 65% 30.13 in 7.0 mi SSE 5.8 mph - N/A   Clear
10:53 AM 64.9 °F - 48.9 °F 56% 30.12 in 9.0 mi Calm Calm - N/A   Clear
11:53 AM 63.0 °F - 53.1 °F 70% 30.09 in 8.0 mi SW 5.8 mph - N/A   Clear
12:53 PM 64.0 °F - 54.0 °F 70% 30.06 in 6.0 mi SE 5.8 mph - N/A   Haze
1:53 PM 64.9 °F - 50.0 °F 58% 30.04 in 8.0 mi South 3.5 mph - N/A   Clear
2:53 PM 66.0 °F - 54.0 °F 65% 30.02 in 6.0 mi SE 5.8 mph - N/A   Haze
3:53 PM 66.9 °F - 52.0 °F 59% 30.01 in 6.0 mi South 3.5 mph - N/A   Haze
4:53 PM 64.0 °F - 53.1 °F 67% 30.00 in 6.0 mi Variable 3.5 mph - N/A   Haze
5:53 PM 62.1 °F - 50.0 °F 65% 30.01 in 7.0 mi Variable 3.5 mph - N/A   Clear
6:53 PM 64.0 °F - 48.9 °F 58% 30.03 in 9.0 mi NNE 12.7 mph - N/A   Clear
7:53 PM 61.0 °F - 48.0 °F 62% 30.03 in 9.0 mi Calm Calm - N/A   Clear
8:53 PM 55.9 °F - 48.0 °F 75% 30.03 in 6.0 mi South 4.6 mph - N/A   Haze
9:53 PM 53.1 °F - 48.0 °F 83% 30.03 in 7.0 mi Calm Calm - N/A   Clear
10:53 PM 53.1 °F - 50.0 °F 89% 30.04 in 4.0 mi East 4.6 mph - N/A   Clear
11:53 PM 52.0 °F - 48.0 °F 86% 30.04 in 5.0 mi NNE 3.5 mph - N/A   Clear